Weather reports worldwide

Advertisment
Marina Di Ginosa, Italy (16325): temperature & dewpoint: 10.09.2019 17:00:00 - 16.09.2019 17:00:00 (CEST)Marina Di Ginosa, Italy (16325): wind speed: 10.09.2019 17:00:00 - 16.09.2019 17:00:00 (CEST)Marina Di Ginosa, Italy (16325): wind direction: 10.09.2019 17:00:00 - 16.09.2019 17:00:00 (CEST)Marina Di Ginosa, Italy (16325): reduced air pressure: 10.09.2019 17:00:00 - 16.09.2019 17:00:00 (CEST)Marina Di Ginosa, Italy (16325): visibility: 10.09.2019 17:00:00 - 16.09.2019 17:00:00 (CEST)
Date & Time tt [°C] td [°C] ff [km/h] ff [kn] dd ppp [hPa] vv [km]
16.09.2019 17:00:00 28,0 23,2 21 11 SSW 1016,2 25
16.09.2019 16:00:00 29,0 22,0 18 10 S - 10
16.09.2019 15:00:00 29,0 21,0 13 7 S - 10
16.09.2019 14:00:00 30,0 20,5 13 7 S 1017,6 25
16.09.2019 13:00:00 30,0 20,0 21 11 SSE - 10
16.09.2019 12:00:00 30,0 20,0 13 7 SSE - 10
16.09.2019 11:00:00 28,6 18,1 8 4 SSE 1019,1 25
16.09.2019 10:00:00 26,0 17,0 8 4 - - 10
16.09.2019 09:00:00 23,0 18,0 11 6 WNW - 10
16.09.2019 08:00:00 18,8 16,8 9 5 WNW 1019,0 20
16.09.2019 07:00:00 - - - - - - -
16.09.2019 06:00:00 - - - - - - -
16.09.2019 05:00:00 - - - - - - -
16.09.2019 04:00:00 - - - - - - -
16.09.2019 03:00:00 - - - - - - -
16.09.2019 02:00:00 - - - - - - -
16.09.2019 01:00:00 - - - - - - -
16.09.2019 00:00:00 - - - - - - -
15.09.2019 23:00:00 - - - - - - -
15.09.2019 22:00:00 - - - - - - -
15.09.2019 21:00:00 - - - - - - -
15.09.2019 20:00:00 26,0 20,1 9 5 NNE 1020,0 20
15.09.2019 19:00:00 27,0 23,0 5 3 SSW - 10
15.09.2019 18:00:00 29,0 23,0 5 3 S - 10
15.09.2019 17:00:00 30,6 23,3 8 4 S 1020,0 25
15.09.2019 16:00:00 32,0 23,0 13 7 SE - 10
15.09.2019 15:00:00 32,0 22,0 15 8 SE - 10
15.09.2019 14:00:00 32,8 19,3 16 9 SE 1021,3 20
15.09.2019 13:00:00 33,0 18,0 11 6 - - 10
15.09.2019 12:00:00 32,0 18,0 15 8 - - 10
15.09.2019 11:00:00 30,0 18,4 16 9 N 1022,7 25
15.09.2019 10:00:00 28,0 20,0 13 7 - - 10
15.09.2019 09:00:00 25,0 19,0 18 10 NW - 10
15.09.2019 08:00:00 22,6 18,4 16 9 NW 1022,6 20
15.09.2019 07:00:00 - - - - - - -
15.09.2019 06:00:00 - - - - - - -
15.09.2019 05:00:00 - - - - - - -
15.09.2019 04:00:00 - - - - - - -
15.09.2019 03:00:00 - - - - - - -
15.09.2019 02:00:00 - - - - - - -
15.09.2019 01:00:00 - - - - - - -
15.09.2019 00:00:00 - - - - - - -
14.09.2019 23:00:00 - - - - - - -
14.09.2019 22:00:00 - - - - - - -
14.09.2019 21:00:00 - - - - - - -
14.09.2019 20:00:00 25,2 13,4 13 7 N 1021,5 30
14.09.2019 19:00:00 27,0 13,0 16 9 N - 10
14.09.2019 18:00:00 28,0 13,0 21 11 N - 10
14.09.2019 17:00:00 30,0 14,9 24 13 N 1021,3 25
14.09.2019 16:00:00 31,0 15,0 22 12 NNE - 10
14.09.2019 15:00:00 32,0 16,0 15 8 - - 10
14.09.2019 14:00:00 31,4 16,2 18 10 NNW 1022,9 25
14.09.2019 13:00:00 32,0 17,0 15 8 - - 10
14.09.2019 12:00:00 30,0 18,0 18 10 - - 10
14.09.2019 11:00:00 29,2 17,1 21 11 NNE 1023,5 18
14.09.2019 10:00:00 28,0 19,0 22 12 N - 10
14.09.2019 09:00:00 25,0 19,0 21 11 NW - 10
14.09.2019 08:00:00 22,4 18,6 18 10 NW 1023,4 10
14.09.2019 07:00:00 - - - - - - -
14.09.2019 06:00:00 - - - - - - -
14.09.2019 05:00:00 - - - - - - -
14.09.2019 04:00:00 - - - - - - -
14.09.2019 03:00:00 - - - - - - -
14.09.2019 02:00:00 - - - - - - -
14.09.2019 01:00:00 - - - - - - -
14.09.2019 00:00:00 - - - - - - -
13.09.2019 23:00:00 - - - - - - -
13.09.2019 22:00:00 - - - - - - -
13.09.2019 21:00:00 - - - - - - -
13.09.2019 20:00:00 25,0 15,9 4 2 N 1023,4 25
13.09.2019 19:00:00 26,0 14,0 21 11 NNW - 10
13.09.2019 18:00:00 28,0 14,0 18 10 - - 10
13.09.2019 17:00:00 29,0 14,0 28 15 N 1022,7 15
13.09.2019 16:00:00 31,0 14,0 29 16 - - 10
13.09.2019 15:00:00 32,0 15,0 24 13 N - 10
13.09.2019 14:00:00 32,0 15,1 22 12 N 1023,5 12
13.09.2019 13:00:00 32,0 16,0 21 11 N - 10
13.09.2019 12:00:00 31,0 16,0 18 10 N - 10
13.09.2019 11:00:00 30,2 17,7 22 12 N 1024,5 12
13.09.2019 10:00:00 28,0 19,0 21 11 NW - 10
13.09.2019 09:00:00 25,0 19,0 22 12 NW - 10
13.09.2019 08:00:00 23,0 18,8 24 13 NW 1024,4 10
13.09.2019 07:00:00 - - - - - - -
13.09.2019 06:00:00 - - - - - - -
13.09.2019 05:00:00 - - - - - - -
13.09.2019 04:00:00 - - - - - - -
13.09.2019 03:00:00 - - - - - - -
13.09.2019 02:00:00 - - - - - - -
13.09.2019 01:00:00 - - - - - - -
13.09.2019 00:00:00 - - - - - - -
12.09.2019 23:00:00 - - - - - - -
12.09.2019 22:00:00 - - - - - - -
12.09.2019 21:00:00 - - - - - - -
12.09.2019 20:00:00 26,0 18,7 15 8 N 1022,3 10
12.09.2019 19:00:00 28,0 18,0 21 11 N - 10
12.09.2019 18:00:00 30,0 15,0 16 9 N - 10
12.09.2019 17:00:00 30,0 14,9 18 10 N 1021,3 35
12.09.2019 16:00:00 32,0 15,0 16 9 - - 10
12.09.2019 15:00:00 33,0 15,0 15 8 - - 10
12.09.2019 14:00:00 33,2 14,8 21 11 - 1022,2 20
12.09.2019 13:00:00 32,0 15,0 15 8 - - 10
12.09.2019 12:00:00 31,0 15,0 21 11 NW - 10
12.09.2019 11:00:00 29,0 17,2 4 2 N 1022,4 30
12.09.2019 10:00:00 27,0 18,0 22 12 NW - 10
12.09.2019 09:00:00 24,0 18,0 21 11 NW - 10
12.09.2019 08:00:00 21,4 13,6 13 7 WNW 1021,4 20
12.09.2019 07:00:00 - - - - - - -
12.09.2019 06:00:00 - - - - - - -
12.09.2019 05:00:00 - - - - - - -
12.09.2019 04:00:00 - - - - - - -
12.09.2019 03:00:00 - - - - - - -
12.09.2019 02:00:00 - - - - - - -
12.09.2019 01:00:00 - - - - - - -
12.09.2019 00:00:00 - - - - - - -
11.09.2019 23:00:00 - - - - - - -
11.09.2019 22:00:00 - - - - - - -
11.09.2019 21:00:00 - - - - - - -
11.09.2019 20:00:00 25,2 19,1 13 7 NNE 1018,4 20
11.09.2019 19:00:00 26,0 20,0 15 8 NNE - 10
11.09.2019 18:00:00 28,0 21,0 11 6 ENE - 10
11.09.2019 17:00:00 26,0 19,6 15 8 ENE 1017,3 35
11.09.2019 16:00:00 27,0 21,0 34 18 E - 10
11.09.2019 15:00:00 31,0 19,0 13 7 - - 10
11.09.2019 14:00:00 30,0 18,4 4 2 N 1017,1 35
11.09.2019 13:00:00 29,0 17,0 21 11 - - 10
11.09.2019 12:00:00 30,0 17,0 21 11 - - 10
11.09.2019 11:00:00 28,8 17,7 15 8 N 1016,3 35
11.09.2019 10:00:00 28,0 18,0 21 11 - - 10
11.09.2019 09:00:00 25,0 17,0 13 7 - - 10
11.09.2019 08:00:00 21,8 17,2 13 7 WNW 1015,4 35
11.09.2019 07:00:00 - - - - - - -
11.09.2019 06:00:00 - - - - - - -
11.09.2019 05:00:00 - - - - - - -
11.09.2019 04:00:00 - - - - - - -
11.09.2019 03:00:00 - - - - - - -
11.09.2019 02:00:00 - - - - - - -
11.09.2019 01:00:00 - - - - - - -
11.09.2019 00:00:00 - - - - - - -
10.09.2019 23:00:00 - - - - - - -
10.09.2019 22:00:00 - - - - - - -
10.09.2019 21:00:00 - - - - - - -
10.09.2019 20:00:00 25,6 16,5 15 8 NE 1012,6 35
10.09.2019 19:00:00 27,0 21,0 8 4 - - 10
10.09.2019 18:00:00 28,0 21,0 8 4 SSE - 10
10.09.2019 17:00:00 28,4 20,7 9 5 S 1012,6 25

tt = temperature
td = dewpoint
ff = wind speed
dd = wind direction
ppp = reduced air pressure
vv = visibility

Next stations